Location: Ferma
(41.9500°N, 44.5167°E)
Time: 11:44:10
(UTC+00:00)

BREEZE-M DEB (TANK) - Pass Details

Date: 30 May 2022
Orbit: 338 x 14777 km, 49.6° (Epoch: 30 June)

Event Time Altitude Azimuth Distance (km) Brightness Sun altitude
Rises 18:54:00 0° 320° (NW) 19,423 12.4 -19.9°
Reaches altitude 10° 19:27:28 10° 313° (NW) 19,088 11.7 -22.7°
Maximum altitude 20:23:28 18° 290° (WNW) 15,115 10.5 -25.6°
Drops below altitude 10° 20:57:52 10° 258° (WSW) 10,629 9.4 -26.2°
Sets 21:09:38 0° 239° (WSW) 9,150 8.9 -26.1°
